Wind_Speed
18 17 17 18 20 14 10 9 8 7 6 5 4 4 3 3 3 3 3 4 5 4 4 4 3 3 2 2 2 2 3 3 3 4 4 4 5 5 6 6 6 6 7 7 7 7 7 7 7
17 15 18 21 17 12 11 9 8 8 6 5 5 5 4 3 3 2 2 3 4 4 3 3 3 2 2 1 2 2 2 2 2 3 3 3 4 4 5 5 6 6 6 6 7 7 7 6 6
16 16 20 19 13 11 11 10 9 8 7 6 5 5 5 4 3 3 3 3 4 3 3 3 2 2 2 1 2 1 1 1 2 2 3 3 3 3 4 5 5 5 6 6 6 6 6 6 6
16 18 18 14 10 11 11 10 9 8 7 6 6 6 6 4 3 3 3 2 3 3 3 2 2 2 2 2 1 1 1 1 2 2 2 3 3 3 4 4 5 5 5 6 6 6 6 5 5
15 16 15 13 10 10 10 9 8 7 6 6 6 6 6 5 4 3 3 2 2 2 2 2 2 2 2 1 1 1 1 1 1 2 2 2 2 3 4 4 4 4 5 5 6 5 5 5 5
15 15 13 10 9 9 9 9 9 8 7 7 7 7 6 5 4 3 2 2 2 2 2 2 1 1 1 1 1 1 1 1 1 2 2 2 2 3 4 4 3 4 5 5 5 5 5 5 5
14 12 12 8 9 9 9 9 9 9 9 8 8 7 7 6 4 3 2 1 1 1 2 1 1 1 2 2 1 1 1 0 1 1 2 2 3 3 3 4 4 4 5 5 5 5 5 5 6
12 9 11 7 8 8 9 9 9 10 10 9 8 8 7 6 5 3 2 1 1 2 2 2 2 2 2 2 2 2 2 1 1 0 1 2 2 2 3 3 3 4 4 4 4 5 5 5 5
10 10 9 6 6 8 8 9 9 9 10 10 10 9 8 7 6 4 3 2 2 2 3 3 3 3 3 3 3 2 2 2 2 1 1 1 1 1 2 2 3 3 3 4 4 5 5 5 5
8 7 4 3 3 5 8 9 10 10 9 10 10 9 9 8 7 5 4 3 3 3 3 3 4 4 4 4 3 3 2 2 2 2 1 1 0 1 1 1 2 3 3 4 4 4 5 4 4
5 4 2 1 2 3 6 8 8 10 10 9 9 9 10 9 7 6 5 5 5 4 4 4 4 5 5 5 4 4 3 3 3 3 2 1 1 1 1 1 1 2 3 3 4 4 4 4 4
4 1 1 1 2 3 4 6 7 8 9 9 9 9 10 9 8 7 6 6 5 5 5 6 6 6 6 5 4 4 4 3 2 2 1 1 1 0 0 1 2 2 2 3 3 4 3 3 3
2 1 1 2 3 2 2 5 7 7 8 8 9 10 10 10 9 9 8 7 7 6 6 6 6 6 6 6 5 5 4 4 3 2 1 1 1 1 1 1 1 1 1 2 3 2 2 2 2
4 3 1 1 2 3 3 3 7 7 9 9 9 10 10 10 10 10 9 9 8 7 7 7 7 7 7 7 6 5 4 3 3 2 1 2 2 1 1 1 1 1 1 1 2 2 1 1 1
4 2 1 1 3 4 4 3 5 8 9 9 10 10 10 10 10 10 10 10 9 8 8 7 7 7 7 7 6 5 4 3 3 2 2 2 2 2 2 2 2 2 2 2 2 1 1 1 1
3 1 2 3 3 6 7 7 6 9 9 10 10 10 10 10 10 11 11 11 11 10 10 9 8 8 7 7 6 5 4 3 4 3 3 3 3 3 3 2 3 3 3 3 3 3 2 2 2
2 2 5 4 5 5 6 9 9 9 8 10 10 10 10 10 10 11 12 12 12 11 10 10 10 9 8 7 5 5 4 4 4 4 4 4 4 4 4 4 4 4 4 4 4 4 3 4 4
3 6 7 6 6 6 7 10 11 8 9 10 9 9 11 11 11 11 12 13 13 12 11 10 10 10 9 7 6 5 5 5 5 5 5 5 5 5 5 5 4 4 5 5 5 5 5 5 5
8 7 7 9 7 6 7 8 10 9 9 10 10 9 10 11 11 12 12 13 13 12 12 11 10 10 9 8 7 6 6 6 6 6 6 5 5 5 5 5 5 5 6 6 6 6 6 6 6
11 7 7 9 8 7 7 8 9 8 9 11 11 10 10 10 11 12 12 13 14 14 13 12 11 10 10 10 8 7 7 7 6 6 6 7 6 7 7 6 7 7 7 7 7 8 8 8 8
11 9 8 9 9 8 6 8 11 11 10 11 11 10 9 10 11 11 12 13 13 13 13 12 12 11 10 10 10 9 9 8 8 8 7 8 8 8 7 7 7 8 8 9 10 10 10 10 10
11 10 11 10 9 7 8 12 15 13 9 9 11 11 11 10 11 11 12 13 14 14 14 13 13 12 11 11 11 10 10 9 9 7 7 7 8 8 8 8 9 9 10 10 10 11 11 11 12
13 13 12 11 10 9 8 12 15 12 10 8 9 10 11 12 11 12 13 14 14 14 14 13 13 12 12 12 12 10 9 9 8 7 7 7 7 8 8 8 9 10 10 11 12 12 12 12 13
15 13 11 9 9 10 9 9 15 13 10 9 10 11 11 12 12 12 13 14 15 15 15 14 14 13 13 12 11 10 9 8 8 8 8 9 9 9 9 10 10 11 11 12 12 13 13 13 14
16 13 11 9 9 10 9 10 14 13 13 13 12 12 12 12 12 12 13 14 15 15 15 15 14 13 13 12 11 10 9 9 9 9 9 9 9 10 10 11 12 12 12 12 13 14 15 15 15
17 15 12 9 10 11 10 10 14 15 15 14 12 12 13 12 12 12 14 14 15 15 15 15 14 13 13 12 11 10 10 10 9 10 10 10 11 12 12 13 13 14 14 14 15 16 17 17 17
18 17 14 13 13 13 13 12 15 15 15 14 12 12 12 13 12 13 14 15 16 16 16 15 15 14 14 13 12 11 10 10 10 10 11 12 12 13 14 14 14 14 15 15 16 16 17 18 18
20 17 16 18 16 13 13 13 15 15 14 14 13 13 13 13 12 13 14 15 15 14 16 16 15 14 14 13 11 11 11 11 12 12 12 12 13 13 14 14 14 15 15 16 16 17 17 18 19
22 22 20 18 17 13 13 15 14 14 14 15 15 14 15 14 14 13 14 14 15 16 16 16 15 14 14 13 13 12 12 13 13 13 13 13 13 13 13 14 15 16 16 17 17 18 18 19 20
22 23 22 22 20 18 15 17 15 13 14 16 16 16 16 14 13 14 15 15 15 16 16 16 15 15 14 14 14 14 14 14 14 14 14 14 14 14 14 15 16 17 17 18 18 19 19 20 20
Wind_Direction
77 76 76 67 59 54 45 43 34 36 46 51 48 51 57 42 60 79 87 88 93 91 88 90 92 85 82 81 85 96 93 90 104 110 112 113 109 109 107 108 108 107 105 100 97 95 91 89 87
79 77 70 61 54 39 37 35 36 36 36 36 42 44 47 43 51 67 84 88 92 90 87 88 82 74 69 65 73 80 81 85 100 108 110 110 110 113 107 107 108 107 105 101 99 96 94 91 87
83 74 65 58 41 33 34 32 34 35 28 27 35 37 40 41 51 55 74 85 88 90 89 82 71 58 45 40 52 58 62 82 90 100 107 106 109 112 112 108 107 105 102 102 100 95 92 89 85
84 73 71 63 31 28 32 28 25 30 24 21 31 34 36 43 44 47 65 79 80 83 88 79 66 50 38 27 39 40 41 67 82 91 92 99 101 107 113 113 108 106 105 104 101 96 90 86 86
78 75 71 67 29 23 24 23 19 21 20 25 32 32 31 34 33 42 57 72 81 97 94 82 64 44 23 14 17 28 28 54 68 70 74 86 89 98 106 109 108 107 107 105 102 99 92 89 85
78 71 70 59 32 21 18 19 15 20 22 25 32 30 32 27 27 35 55 71 88 101 96 75 49 15 344 329 340 29 38 50 56 56 51 69 84 95 102 102 99 104 104 101 104 105 99 94 88
72 69 75 46 20 15 14 18 14 21 18 17 26 26 28 26 29 36 55 79 91 93 83 71 31 358 330 310 309 306 316 3 43 62 55 64 78 86 90 93 98 102 103 101 103 105 101 96 94
90 86 84 46 18 11 7 19 18 18 21 16 19 23 26 26 28 35 41 21 63 63 54 42 13 349 334 307 308 310 290 283 295 22 35 49 73 83 89 95 99 101 105 106 105 102 101 98 97
83 78 79 58 15 13 6 13 12 21 22 19 19 21 21 22 24 28 28 21 50 53 40 33 18 2 353 330 321 308 295 280 278 287 320 25 66 95 101 99 106 107 110 109 108 105 103 103 99
79 80 85 92 23 13 7 9 4 5 13 21 19 23 23 23 24 26 28 32 25 31 28 24 18 6 358 349 346 325 305 301 298 302 293 342 127 140 120 100 108 117 116 112 105 106 105 103 96
95 93 112 79 356 20 15 1 357 356 3 15 16 23 25 26 27 31 30 28 25 22 21 20 12 3 355 351 346 333 324 313 302 296 280 268 227 135 102 96 116 119 120 111 110 113 106 108 101
111 121 123 49 4 22 5 352 350 349 355 6 12 17 20 24 27 27 30 31 27 17 12 8 1 355 350 343 336 328 322 315 306 301 297 299 297 18 127 140 144 134 129 128 127 127 114 111 98
152 169 250 352 356 334 356 344 350 348 354 1 6 12 15 21 26 26 26 25 21 15 7 359 349 349 345 341 330 318 314 313 314 309 294 324 329 300 282 171 159 159 141 131 138 140 127 111 99
187 194 192 343 320 340 346 346 352 360 356 357 3 7 12 17 21 22 19 16 15 10 4 355 345 341 335 332 328 313 310 310 303 294 282 298 310 307 261 248 210 205 203 175 161 156 153 121 99
172 156 116 305 324 309 300 323 341 358 358 359 1 4 5 9 14 14 13 10 7 2 356 352 345 340 336 328 323 318 314 301 290 281 281 286 287 288 282 266 243 235 225 218 206 195 207 206 208
136 167 226 238 282 296 317 322 332 347 352 357 360 0 3 3 5 8 9 8 5 1 356 355 349 346 343 336 326 321 317 302 290 275 277 287 289 281 275 274 258 244 235 236 230 226 236 251 246
95 265 262 262 288 290 308 311 316 337 341 343 353 356 358 359 0 3 4 6 3 1 359 355 350 348 344 341 335 326 320 302 297 284 276 284 294 289 272 271 267 255 246 251 246 241 252 258 258
198 248 258 258 267 278 287 298 309 330 327 331 344 349 348 352 355 358 360 2 4 5 3 358 355 353 349 343 334 322 319 308 297 288 277 276 283 286 275 269 269 263 258 259 257 257 261 264 262
203 224 246 253 262 276 279 289 303 317 327 326 331 340 341 345 352 354 354 357 1 360 358 356 354 353 351 346 334 316 309 309 299 287 276 271 271 277 275 273 272 272 268 263 258 262 265 266 267
206 213 242 258 271 270 266 276 285 296 314 320 326 328 333 337 347 353 352 353 355 354 354 354 349 350 347 343 335 324 313 304 299 292 278 268 267 272 271 266 266 269 269 268 265 265 266 266 267
214 209 234 249 263 278 274 276 282 287 294 314 320 325 329 333 341 344 346 349 350 349 348 348 347 345 343 339 332 327 319 310 299 292 282 270 264 267 267 267 270 270 269 270 267 268 269 270 269
218 222 228 238 249 263 272 275 283 284 289 316 323 325 328 332 337 340 342 344 346 345 343 342 340 340 338 333 326 320 314 308 297 289 282 276 269 267 269 271 271 273 277 277 275 273 273 273 274
217 226 234 237 241 243 250 270 281 285 282 297 307 309 320 327 332 335 337 339 340 340 339 335 334 331 330 331 327 318 312 306 296 291 289 288 285 278 275 276 277 281 281 279 277 278 279 277 276
224 231 237 240 243 247 245 258 278 285 298 290 292 310 318 319 324 330 333 334 335 334 336 333 328 326 325 327 324 319 313 305 299 295 290 289 289 286 285 283 283 285 284 280 279 279 280 282 279
228 228 235 247 260 260 251 244 264 277 282 286 294 303 306 310 317 325 329 331 333 331 331 331 329 328 328 327 324 319 315 309 300 296 289 290 293 291 291 289 285 284 285 282 282 282 282 283 283
231 227 224 233 261 266 258 241 250 265 278 284 291 295 301 304 307 315 323 329 329 330 329 330 329 329 330 327 321 315 313 310 304 299 295 293 292 290 289 290 288 286 285 284 286 285 282 282 284
227 227 219 232 245 266 270 263 258 271 276 282 289 294 301 301 308 315 317 321 325 328 329 328 326 325 326 325 322 317 317 314 312 308 302 297 296 292 289 290 289 289 289 288 289 289 285 284 286
221 225 224 225 239 251 265 265 260 263 274 282 287 292 296 302 303 310 314 316 324 329 329 328 325 321 321 322 321 320 318 317 316 310 306 302 300 296 294 294 293 294 293 294 296 293 289 289 289
223 220 222 226 226 238 260 260 255 257 271 281 287 290 292 297 296 306 314 317 323 327 327 328 329 325 322 322 323 323 321 316 315 310 308 305 303 303 301 298 295 295 294 293 294 292 290 290 291
227 227 224 228 227 225 244 272 266 251 266 276 280 283 287 290 294 300 306 311 319 324 326 326 327 327 325 321 321 319 320 319 317 311 309 306 304 306 305 302 299 297 297 296 294 292 292 293 293
Height
5905 5905 5904 5903 5902 5904 5903 5903 5902 5901 5900 5899 5898 5898 5897 5897 5898 5899 5896 5895 5896 5896 5896 5897 5897 5897 5898 5898 5897 5897 5897 5896 5896 5896 5896 5896 5896 5895 5895 5895 5895 5895 5895 5895 5896 5896 5896 5896 5896
5908 5908 5906 5904 5906 5907 5906 5905 5904 5903 5902 5901 5900 5899 5898 5898 5898 5897 5897 5897 5897 5897 5898 5898 5898 5899 5899 5899 5899 5898 5898 5898 5897 5897 5897 5897 5897 5897 5896 5896 5896 5896 5896 5896 5897 5897 5897 5897 5897
5910 5909 5907 5908 5910 5910 5909 5907 5906 5905 5904 5903 5902 5901 5900 5899 5899 5898 5898 5898 5898 5898 5899 5899 5899 5900 5900 5900 5900 5899 5899 5899 5898 5898 5898 5898 5898 5898 5897 5898 5897 5898 5898 5898 5898 5898 5898 5898 5898
5912 5911 5911 5914 5914 5912 5911 5910 5908 5907 5905 5904 5904 5903 5901 5901 5900 5899 5899 5899 5899 5899 5899 5900 5900 5900 5900 5901 5900 5900 5900 5900 5899 5899 5899 5899 5899 5898 5898 5899 5899 5899 5899 5899 5899 5899 5899 5899 5899
5912 5913 5914 5915 5916 5915 5913 5911 5910 5909 5907 5906 5906 5904 5903 5902 5901 5901 5900 5900 5900 5900 5900 5900 5901 5901 5901 5901 5901 5901 5901 5900 5900 5900 5900 5900 5900 5899 5899 5900 5900 5900 5900 5900 5900 5900 5900 5900 5900
5915 5916 5916 5918 5918 5917 5915 5913 5912 5910 5909 5907 5907 5906 5905 5904 5903 5902 5901 5901 5901 5901 5901 5901 5902 5902 5902 5902 5902 5901 5901 5901 5901 5901 5901 5901 5901 5900 5900 5901 5901 5901 5901 5901 5901 5901 5901 5901 5901
5917 5918 5919 5922 5920 5919 5917 5915 5914 5912 5911 5909 5908 5907 5906 5905 5904 5903 5902 5902 5902 5902 5902 5902 5902 5902 5903 5902 5902 5902 5902 5902 5902 5902 5902 5902 5901 5901 5901 5901 5901 5902 5902 5902 5902 5902 5902 5902 5902
5920 5921 5921 5924 5922 5921 5919 5917 5916 5914 5913 5911 5910 5909 5908 5907 5906 5905 5904 5903 5903 5903 5903 5903 5903 5903 5903 5903 5903 5903 5903 5903 5902 5902 5902 5902 5902 5902 5902 5902 5902 5902 5903 5903 5903 5903 5903 5903 5903
5922 5924 5924 5926 5925 5923 5921 5919 5917 5915 5914 5913 5911 5911 5910 5908 5907 5906 5905 5904 5904 5904 5904 5904 5904 5904 5904 5903 5903 5903 5903 5903 5903 5903 5903 5903 5903 5903 5903 5903 5903 5903 5903 5903 5904 5904 5904 5904 5904
5924 5926 5927 5927 5926 5924 5922 5921 5918 5916 5914 5913 5913 5912 5910 5909 5908 5907 5906 5905 5905 5905 5905 5905 5905 5905 5904 5904 5903 5903 5903 5903 5903 5903 5903 5903 5903 5903 5903 5904 5904 5904 5904 5904 5904 5905 5905 5905 5905
5926 5927 5928 5927 5926 5925 5924 5923 5920 5918 5916 5915 5914 5913 5912 5911 5910 5909 5908 5907 5906 5906 5906 5906 5905 5905 5905 5904 5904 5904 5904 5903 5903 5903 5903 5903 5903 5904 5904 5904 5904 5905 5905 5905 5905 5906 5905 5906 5906
5928 5928 5927 5927 5927 5926 5925 5924 5921 5920 5919 5917 5916 5915 5914 5912 5911 5910 5909 5908 5908 5907 5907 5906 5906 5906 5905 5905 5904 5904 5904 5904 5903 5903 5903 5903 5904 5904 5904 5904 5905 5905 5906 5906 5906 5906 5906 5906 5907
5928 5929 5929 5928 5928 5927 5926 5925 5923 5922 5920 5919 5917 5916 5915 5913 5912 5911 5910 5909 5909 5908 5907 5907 5906 5906 5905 5905 5904 5904 5904 5904 5903 5903 5904 5904 5904 5904 5904 5905 5905 5906 5906 5906 5907 5907 5907 5907 5907
5928 5929 5929 5929 5928 5927 5926 5924 5924 5923 5921 5920 5918 5917 5916 5914 5913 5912 5911 5911 5910 5909 5908 5907 5906 5906 5905 5905 5904 5903 5903 5903 5903 5903 5903 5903 5904 5904 5904 5905 5905 5906 5906 5907 5907 5907 5908 5908 5908
5927 5928 5930 5930 5929 5928 5927 5925 5924 5923 5922 5921 5919 5918 5917 5915 5914 5913 5913 5911 5910 5909 5908 5907 5906 5906 5905 5904 5904 5903 5903 5903 5903 5903 5903 5903 5904 5904 5905 5905 5906 5906 5906 5907 5907 5908 5908 5908 5908
5927 5929 5930 5931 5930 5929 5928 5926 5924 5923 5922 5921 5920 5919 5917 5917 5916 5914 5913 5912 5911 5909 5908 5907 5906 5906 5905 5904 5904 5903 5903 5903 5903 5903 5903 5903 5903 5904 5905 5905 5906 5906 5906 5907 5907 5908 5908 5908 5908
5928 5930 5931 5931 5930 5930 5929 5926 5924 5924 5923 5922 5921 5920 5918 5917 5916 5915 5914 5913 5911 5909 5908 5907 5906 5905 5905 5904 5903 5903 5903 5902 5902 5903 5902 5903 5903 5904 5904 5905 5905 5905 5906 5907 5907 5908 5908 5908 5908
5931 5933 5932 5931 5930 5930 5929 5928 5924 5924 5923 5923 5922 5920 5919 5918 5916 5915 5915 5913 5911 5910 5908 5907 5906 5905 5904 5904 5903 5903 5902 5902 5902 5902 5902 5903 5903 5903 5904 5905 5905 5905 5906 5906 5907 5907 5907 5908 5908
5928 5930 5931 5930 5929 5929 5930 5929 5927 5925 5923 5922 5921 5920 5920 5918 5917 5916 5915 5913 5912 5910 5909 5907 5906 5905 5904 5903 5903 5902 5902 5902 5902 5901 5901 5902 5902 5902 5903 5904 5904 5904 5905 5905 5906 5906 5906 5907 5907
5926 5929 5930 5929 5929 5929 5929 5928 5927 5925 5923 5922 5921 5920 5920 5918 5917 5916 5915 5913 5912 5910 5909 5907 5906 5905 5904 5903 5902 5901 5901 5901 5900 5900 5900 5901 5901 5901 5902 5902 5903 5903 5904 5904 5904 5905 5905 5905 5905
5924 5927 5929 5929 5929 5928 5929 5928 5926 5925 5923 5922 5920 5919 5919 5917 5917 5916 5915 5913 5912 5910 5909 5907 5905 5904 5903 5902 5901 5901 5900 5899 5899 5899 5898 5899 5899 5900 5900 5901 5901 5901 5902 5902 5903 5903 5903 5904 5904
5922 5925 5926 5927 5928 5928 5929 5928 5925 5923 5921 5920 5920 5918 5918 5916 5916 5915 5914 5913 5911 5910 5908 5906 5905 5904 5902 5902 5900 5900 5899 5898 5898 5897 5897 5897 5897 5898 5899 5899 5899 5899 5900 5900 5900 5901 5901 5901 5901
5920 5922 5923 5924 5925 5926 5927 5926 5924 5921 5919 5919 5919 5919 5917 5915 5915 5914 5913 5912 5910 5909 5907 5906 5904 5903 5901 5900 5899 5898 5897 5897 5896 5896 5896 5896 5896 5897 5897 5897 5898 5898 5898 5898 5898 5899 5898 5898 5898
5917 5919 5920 5921 5923 5924 5925 5926 5923 5919 5919 5918 5918 5918 5917 5916 5915 5914 5913 5911 5910 5908 5906 5904 5903 5901 5900 5898 5897 5896 5896 5895 5895 5895 5895 5895 5895 5895 5896 5896 5896 5896 5896 5896 5896 5896 5896 5895 5895
5914 5917 5919 5920 5921 5922 5923 5924 5923 5920 5919 5918 5917 5917 5917 5915 5914 5913 5912 5910 5909 5907 5905 5903 5901 5900 5898 5897 5896 5895 5894 5894 5894 5894 5894 5894 5894 5894 5894 5894 5894 5893 5893 5893 5893 5893 5892 5892 5892
5911 5914 5917 5920 5921 5919 5920 5921 5921 5919 5919 5918 5917 5916 5915 5914 5912 5911 5911 5909 5908 5906 5904 5902 5900 5898 5897 5896 5895 5894 5893 5893 5892 5892 5892 5892 5892 5892 5891 5891 5891 5891 5890 5890 5890 5889 5889 5888 5888
5908 5911 5915 5918 5919 5920 5919 5919 5916 5916 5917 5916 5916 5915 5914 5913 5912 5910 5909 5907 5907 5905 5903 5901 5899 5898 5896 5895 5893 5892 5891 5891 5890 5890 5890 5889 5889 5889 5888 5888 5888 5888 5887 5886 5886 5885 5885 5884 5884
5905 5908 5911 5913 5915 5917 5917 5917 5914 5912 5914 5914 5914 5913 5912 5911 5911 5910 5908 5906 5905 5903 5902 5900 5898 5897 5895 5893 5892 5891 5890 5889 5888 5888 5887 5887 5886 5886 5885 5885 5885 5884 5884 5883 5882 5881 5881 5880 5880
5900 5904 5907 5910 5912 5915 5915 5915 5909 5910 5912 5912 5911 5911 5910 5909 5908 5907 5907 5905 5904 5902 5901 5899 5897 5896 5894 5892 5891 5889 5888 5887 5886 5885 5885 5884 5884 5883 5882 5882 5881 5881 5880 5879 5879 5878 5877 5876 5875
5896 5899 5903 5906 5908 5910 5912 5913 5906 5907 5909 5909 5909 5909 5908 5906 5905 5905 5905 5904 5903 5901 5900 5898 5896 5895 5893 5891 5890 5888 5887 5886 5885 5883 5882 5882 5881 5880 5880 5879 5878 5877 5876 5875 5875 5874 5872 5871 5870